QPF
0.02 0.02 0.02 0.02 0.02 0.02 0.02 0.02 0.02 0.02 0.04 0.05 0.05 0.05 0.04 0.02 0.01 0.01 0.01 0.01 0.01 0.01 0.01 0.02 0.03 0.03 0.04 0.04 0.05 0.05 0.04 0.03 0.03 0.03 0.03 0.03 0.03 0.02 0.01 0.00 0.00 0.00 0.00 0.00
0.02 0.02 0.03 0.03 0.02 0.02 0.02 0.02 0.02 0.03 0.04 0.04 0.06 0.07 0.04 0.02 0.02 0.01 0.01 0.01 0.01 0.02 0.02 0.02 0.02 0.02 0.02 0.03 0.04 0.05 0.05 0.04 0.03 0.03 0.02 0.02 0.02 0.02 0.01 0.00 0.00 0.00 0.01 0.01
0.03 0.03 0.04 0.06 0.05 0.04 0.04 0.03 0.03 0.03 0.04 0.04 0.03 0.03 0.02 0.01 0.01 0.01 0.02 0.02 0.02 0.02 0.02 0.02 0.02 0.02 0.02 0.03 0.04 0.04 0.05 0.05 0.04 0.03 0.02 0.02 0.01 0.01 0.01 0.00 0.00 0.01 0.01 0.01
0.03 0.04 0.07 0.06 0.05 0.05 0.04 0.04 0.03 0.03 0.03 0.02 0.02 0.02 0.01 0.01 0.01 0.01 0.02 0.02 0.02 0.02 0.02 0.02 0.02 0.02 0.02 0.03 0.03 0.03 0.03 0.03 0.03 0.03 0.02 0.01 0.01 0.01 0.01 0.01 0.01 0.01 0.01 0.01
0.05 0.08 0.10 0.08 0.05 0.07 0.08 0.05 0.03 0.02 0.02 0.01 0.01 0.01 0.02 0.01 0.01 0.01 0.01 0.02 0.02 0.02 0.02 0.03 0.03 0.03 0.04 0.04 0.03 0.02 0.02 0.02 0.03 0.02 0.01 0.01 0.01 0.00 0.00 0.00 0.00 0.00 0.00 0.00
0.07 0.12 0.16 0.13 0.08 0.07 0.07 0.06 0.03 0.02 0.01 0.01 0.00 0.01 0.02 0.02 0.02 0.02 0.02 0.03 0.03 0.03 0.03 0.03 0.04 0.03 0.03 0.03 0.03 0.02 0.02 0.01 0.02 0.01 0.01 0.01 0.00 0.00 0.00 0.00 0.00 0.00 0.00 0.00
0.10 0.14 0.15 0.10 0.04 0.03 0.05 0.04 0.02 0.01 0.01 0.01 0.01 0.01 0.01 0.01 0.02 0.03 0.02 0.02 0.03 0.03 0.02 0.03 0.03 0.02 0.03 0.02 0.02 0.02 0.01 0.01 0.01 0.01 0.01 0.01 0.00 0.00 0.00 0.00 0.00 0.01 0.01 0.00
0.12 0.15 0.12 0.04 0.03 0.03 0.03 0.01 0.01 0.01 0.01 0.01 0.01 0.01 0.00 0.00 0.01 0.02 0.03 0.02 0.02 0.02 0.02 0.02 0.02 0.02 0.03 0.03 0.02 0.01 0.01 0.00 0.01 0.01 0.01 0.00 0.00 0.01 0.01 0.01 0.01 0.01 0.01 0.00
0.08 0.10 0.07 0.03 0.02 0.01 0.01 0.01 0.00 0.00 0.00 0.00 0.00 0.01 0.01 0.00 0.01 0.02 0.03 0.02 0.02 0.01 0.02 0.02 0.02 0.02 0.02 0.02 0.02 0.02 0.01 0.01 0.01 0.01 0.01 0.01 0.00 0.00 0.00 0.00 0.01 0.01 0.00 0.00
0.10 0.09 0.07 0.04 0.02 0.01 0.00 0.00 0.00 0.00 0.00 0.00 0.00 0.00 0.01 0.01 0.01 0.01 0.02 0.02 0.02 0.02 0.02 0.02 0.02 0.02 0.02 0.02 0.02 0.03 0.02 0.01 0.00 0.00 0.00 0.01 0.00 0.00 0.00 0.00 0.00 0.00 0.01 0.00
0.14 0.11 0.07 0.05 0.02 0.00 0.00 0.00 0.00 0.00 0.00 0.00 0.00 0.00 0.01 0.01 0.01 0.01 0.01 0.02 0.02 0.03 0.03 0.02 0.02 0.02 0.02 0.02 0.02 0.01 0.01 0.00 0.00 0.00 0.00 0.01 0.00 0.00 0.00 0.00 0.00 0.00 0.00 0.00
0.12 0.13 0.08 0.05 0.02 0.00 0.00 0.00 0.01 0.00 0.00 0.00 0.00 0.00 0.01 0.01 0.01 0.01 0.01 0.02 0.02 0.02 0.02 0.02 0.02 0.02 0.02 0.02 0.01 0.01 0.01 0.00 0.00 0.00 0.00 0.00 0.00 0.00 0.00 0.00 0.00 0.00 0.00 0.00
0.06 0.08 0.07 0.03 0.01 0.01 0.00 0.01 0.01 0.00 0.00 0.01 0.01 0.01 0.01 0.01 0.01 0.01 0.01 0.01 0.01 0.01 0.01 0.02 0.02 0.02 0.02 0.02 0.01 0.01 0.00 0.00 0.00 0.00 0.00 0.01 0.00 0.00 0.00 0.00 0.00 0.00 0.00 0.00
0.07 0.06 0.04 0.02 0.01 0.00 0.00 0.01 0.01 0.01 0.01 0.01 0.01 0.01 0.01 0.01 0.01 0.01 0.01 0.01 0.01 0.01 0.01 0.01 0.01 0.01 0.01 0.01 0.01 0.01 0.00 0.00 0.00 0.00 0.00 0.00 0.00 0.00 0.00 0.00 0.00 0.00 0.00 0.00
0.06 0.04 0.02 0.01 0.00 0.00 0.00 0.00 0.01 0.01 0.01 0.01 0.01 0.01 0.00 0.00 0.00 0.00 0.00 0.00 0.00 0.00 0.00 0.00 0.00 0.00 0.00 0.00 0.00 0.00 0.00 0.00 0.00 0.00 0.00 0.00 0.00 0.00 0.00 0.00 0.00 0.00 0.00 0.00
0.04 0.02 0.01 0.00 0.00 0.00 0.00 0.00 0.00 0.00 0.01 0.01 0.01 0.00 0.00 0.00 0.00 0.00 0.00 0.00 0.00 0.00 0.00 0.00 0.00 0.00 0.00 0.00 0.00 0.00 0.00 0.00 0.00 0.00 0.00 0.00 0.00 0.00 0.00 0.00 0.00 0.00 0.00 0.00
0.03 0.01 0.00 0.00 0.00 0.00 0.00 0.00 0.00 0.00 0.00 0.00 0.00 0.00 0.00 0.00 0.00 0.00 0.00 0.00 0.00 0.00 0.00 0.00 0.00 0.00 0.00 0.00 0.00 0.00 0.00 0.00 0.00 0.00 0.00 0.00 0.00 0.00 0.00 0.00 0.00 0.00 0.00 0.00
0.02 0.01 0.00 0.00 0.00 0.00 0.00 0.00 0.00 0.00 0.00 0.00 0.00 0.00 0.00 0.00 0.00 0.00 0.00 0.00 0.00 0.00 0.00 0.00 0.00 0.00 0.00 0.00 0.00 0.00 0.00 0.00 0.00 0.00 0.00 0.00 0.00 0.00 0.00 0.00 0.00 0.00 0.00 0.00
0.02 0.01 0.00 0.00 0.00 0.00 0.00 0.00 0.00 0.00 0.00 0.00 0.00 0.00 0.00 0.00 0.00 0.00 0.00 0.00 0.00 0.00 0.00 0.00 0.00 0.00 0.00 0.00 0.00 0.00 0.00 0.00 0.00 0.00 0.00 0.00 0.00 0.00 0.00 0.00 0.00 0.00 0.00 0.00
0.01 0.01 0.00 0.00 0.00 0.00 0.00 0.00 0.00 0.00 0.00 0.00 0.00 0.00 0.00 0.00 0.00 0.00 0.00 0.00 0.00 0.00 0.00 0.00 0.00 0.00 0.00 0.00 0.00 0.00 0.00 0.00 0.00 0.00 0.00 0.00 0.00 0.00 0.00 0.00 0.00 0.00 0.00 0.00
0.01 0.00 0.00 0.00 0.00 0.00 0.00 0.00 0.00 0.00 0.00 0.00 0.00 0.00 0.00 0.00 0.00 0.00 0.00 0.00 0.00 0.00 0.00 0.00 0.00 0.00 0.00 0.00 0.00 0.00 0.00 0.00 0.00 0.00 0.00 0.00 0.00 0.00 0.00 0.00 0.00 0.00 0.00 0.00
0.01 0.00 0.00 0.00 0.00 0.00 0.00 0.00 0.00 0.00 0.00 0.00 0.00 0.00 0.00 0.00 0.00 0.00 0.00 0.00 0.00 0.00 0.00 0.00 0.00 0.00 0.00 0.00 0.00 0.00 0.00 0.00 0.00 0.00 0.00 0.00 0.00 0.00 0.00 0.00 0.00 0.00 0.00 0.00
0.01 0.00 0.00 0.00 0.00 0.00 0.00 0.00 0.00 0.00 0.00 0.00 0.00 0.00 0.00 0.00 0.00 0.00 0.00 0.00 0.00 0.00 0.00 0.00 0.00 0.00 0.00 0.00 0.00 0.00 0.00 0.00 0.00 0.00 0.00 0.00 0.00 0.00 0.00 0.00 0.00 0.00 0.00 0.00
0.01 0.00 0.00 0.00 0.00 0.00 0.00 0.00 0.00 0.00 0.00 0.00 0.00 0.00 0.00 0.00 0.00 0.00 0.00 0.00 0.00 0.00 0.00 0.00 0.00 0.00 0.00 0.00 0.00 0.00 0.00 0.00 0.00 0.00 0.00 0.00 0.00 0.00 0.00 0.00 0.00 0.00 0.00 0.00
0.01 0.00 0.00 0.00 0.00 0.00 0.00 0.00 0.00 0.00 0.00 0.00 0.00 0.00 0.00 0.00 0.00 0.00 0.00 0.00 0.00 0.00 0.00 0.00 0.00 0.00 0.00 0.00 0.00 0.00 0.00 0.00 0.00 0.00 0.00 0.00 0.00 0.00 0.00 0.00 0.00 0.00 0.00 0.00
0.01 0.01 0.00 0.00 0.00 0.00 0.00 0.00 0.00 0.00 0.00 0.00 0.00 0.00 0.00 0.00 0.00 0.00 0.00 0.00 0.00 0.00 0.00 0.00 0.00 0.00 0.00 0.00 0.00 0.00 0.00 0.00 0.00 0.00 0.00 0.00 0.00 0.00 0.00 0.00 0.00 0.00 0.00 0.00
0.01 0.01 0.00 0.00 0.00 0.00 0.00 0.00 0.00 0.00 0.00 0.00 0.00 0.00 0.00 0.00 0.00 0.00 0.00 0.00 0.00 0.00 0.00 0.00 0.00 0.00 0.00 0.00 0.00 0.00 0.00 0.00 0.00 0.00 0.00 0.00 0.00 0.00 0.00 0.00 0.00 0.00 0.00 0.00
MSLP
1012.02 1011.81 1011.63 1011.50 1011.42 1011.41 1011.48 1011.64 1011.91 1012.30 1012.81 1013.45 1014.21 1015.08 1016.03 1017.02 1018.01 1018.95 1019.79 1020.52 1021.10 1021.53 1021.83 1022.01 1022.10 1022.13 1022.12 1022.09 1022.06 1022.03 1022.00 1021.96 1021.91 1021.86 1021.80 1021.73 1021.66 1021.60 1021.55 1021.51 1021.48 1021.45 1021.43 1021.41
1012.08 1011.84 1011.56 1011.28 1011.02 1010.84 1010.76 1010.82 1011.06 1011.48 1012.10 1012.90 1013.86 1014.92 1016.04 1017.17 1018.25 1019.22 1020.07 1020.76 1021.29 1021.67 1021.93 1022.09 1022.18 1022.22 1022.24 1022.24 1022.24 1022.23 1022.20 1022.17 1022.12 1022.08 1022.03 1022.00 1021.98 1021.98 1022.01 1022.04 1022.08 1022.11 1022.12 1022.12
1012.09 1011.81 1011.47 1011.08 1010.71 1010.40 1010.23 1010.24 1010.46 1010.93 1011.64 1012.56 1013.65 1014.84 1016.07 1017.27 1018.39 1019.36 1020.18 1020.83 1021.31 1021.65 1021.89 1022.04 1022.15 1022.22 1022.27 1022.30 1022.32 1022.31 1022.29 1022.25 1022.20 1022.16 1022.13 1022.13 1022.17 1022.25 1022.35 1022.47 1022.58 1022.67 1022.73 1022.75
1012.06 1011.76 1011.36 1010.92 1010.48 1010.11 1009.90 1009.89 1010.13 1010.63 1011.40 1012.39 1013.55 1014.81 1016.08 1017.29 1018.39 1019.34 1020.11 1020.71 1021.16 1021.48 1021.72 1021.90 1022.03 1022.15 1022.24 1022.31 1022.34 1022.35 1022.32 1022.28 1022.22 1022.18 1022.17 1022.21 1022.30 1022.44 1022.62 1022.82 1023.00 1023.16 1023.26 1023.30
1012.02 1011.68 1011.24 1010.76 1010.29 1009.92 1009.70 1009.71 1009.98 1010.53 1011.33 1012.36 1013.54 1014.79 1016.04 1017.22 1018.27 1019.17 1019.89 1020.45 1020.88 1021.21 1021.48 1021.69 1021.89 1022.06 1022.21 1022.32 1022.39 1022.41 1022.39 1022.34 1022.28 1022.24 1022.24 1022.31 1022.45 1022.64 1022.89 1023.15 1023.39 1023.59 1023.72 1023.78
1011.96 1011.54 1011.06 1010.56 1010.11 1009.76 1009.58 1009.64 1009.95 1010.54 1011.37 1012.40 1013.57 1014.79 1015.98 1017.10 1018.08 1018.91 1019.59 1020.13 1020.56 1020.91 1021.22 1021.50 1021.77 1022.01 1022.22 1022.39 1022.49 1022.54 1022.52 1022.48 1022.42 1022.39 1022.41 1022.50 1022.66 1022.90 1023.18 1023.48 1023.77 1024.00 1024.16 1024.23
1011.84 1011.34 1010.82 1010.31 1009.88 1009.59 1009.48 1009.61 1009.99 1010.62 1011.48 1012.51 1013.64 1014.81 1015.94 1016.98 1017.89 1018.66 1019.30 1019.83 1020.27 1020.66 1021.03 1021.38 1021.72 1022.03 1022.31 1022.53 1022.68 1022.75 1022.76 1022.72 1022.68 1022.65 1022.68 1022.79 1022.97 1023.23 1023.53 1023.85 1024.15 1024.40 1024.56 1024.64
1011.65 1011.06 1010.51 1010.01 1009.63 1009.41 1009.40 1009.62 1010.08 1010.77 1011.65 1012.67 1013.77 1014.88 1015.95 1016.92 1017.77 1018.50 1019.11 1019.63 1020.10 1020.53 1020.95 1021.36 1021.76 1022.14 1022.47 1022.73 1022.92 1023.02 1023.06 1023.04 1023.02 1023.01 1023.05 1023.16 1023.35 1023.61 1023.92 1024.24 1024.53 1024.77 1024.93 1025.01
1011.38 1010.73 1010.16 1009.69 1009.38 1009.26 1009.36 1009.68 1010.23 1010.98 1011.89 1012.91 1013.98 1015.05 1016.06 1016.97 1017.77 1018.47 1019.06 1019.59 1020.07 1020.53 1020.99 1021.44 1021.89 1022.30 1022.67 1022.96 1023.18 1023.31 1023.37 1023.39 1023.38 1023.40 1023.46 1023.58 1023.77 1024.02 1024.32 1024.62 1024.89 1025.11 1025.26 1025.32
1011.04 1010.36 1009.81 1009.41 1009.20 1009.19 1009.41 1009.84 1010.48 1011.29 1012.23 1013.25 1014.30 1015.32 1016.28 1017.15 1017.92 1018.59 1019.17 1019.70 1020.19 1020.66 1021.13 1021.60 1022.05 1022.48 1022.85 1023.16 1023.39 1023.55 1023.64 1023.68 1023.71 1023.76 1023.84 1023.98 1024.17 1024.41 1024.68 1024.95 1025.20 1025.39 1025.52 1025.57
1010.66 1010.01 1009.53 1009.23 1009.14 1009.26 1009.60 1010.14 1010.86 1011.72 1012.68 1013.69 1014.71 1015.70 1016.61 1017.44 1018.17 1018.82 1019.39 1019.91 1020.39 1020.86 1021.32 1021.77 1022.21 1022.62 1022.98 1023.28 1023.51 1023.68 1023.80 1023.88 1023.96 1024.04 1024.15 1024.30 1024.50 1024.73 1024.98 1025.22 1025.43 1025.59 1025.69 1025.73
1010.24 1009.70 1009.35 1009.19 1009.25 1009.52 1009.98 1010.61 1011.39 1012.27 1013.23 1014.21 1015.19 1016.12 1016.99 1017.78 1018.48 1019.10 1019.65 1020.16 1020.62 1021.06 1021.49 1021.91 1022.30 1022.67 1023.00 1023.28 1023.51 1023.69 1023.84 1023.96 1024.08 1024.21 1024.36 1024.54 1024.75 1024.97 1025.20 1025.40 1025.58 1025.71 1025.79 1025.82
1009.81 1009.44 1009.28 1009.30 1009.53 1009.94 1010.51 1011.21 1012.02 1012.91 1013.83 1014.76 1015.68 1016.55 1017.35 1018.09 1018.75 1019.35 1019.88 1020.36 1020.80 1021.21 1021.60 1021.96 1022.31 1022.63 1022.92 1023.17 1023.40 1023.60 1023.77 1023.95 1024.12 1024.30 1024.49 1024.70 1024.92 1025.14 1025.34 1025.52 1025.67 1025.77 1025.83 1025.85
1009.37 1009.23 1009.29 1009.53 1009.94 1010.49 1011.15 1011.90 1012.72 1013.56 1014.43 1015.28 1016.11 1016.89 1017.63 1018.31 1018.93 1019.50 1020.01 1020.47 1020.89 1021.27 1021.62 1021.94 1022.24 1022.52 1022.77 1023.00 1023.23 1023.44 1023.65 1023.87 1024.09 1024.32 1024.56 1024.80 1025.03 1025.25 1025.44 1025.60 1025.72 1025.79 1025.83 1025.84
1008.92 1009.04 1009.35 1009.81 1010.40 1011.08 1011.82 1012.59 1013.38 1014.17 1014.95 1015.70 1016.43 1017.12 1017.79 1018.41 1018.99 1019.53 1020.03 1020.48 1020.89 1021.25 1021.58 1021.87 1022.13 1022.37 1022.60 1022.82 1023.05 1023.28 1023.52 1023.77 1024.04 1024.32 1024.59 1024.86 1025.10 1025.32 1025.50 1025.63 1025.73 1025.79 1025.81 1025.82
1008.44 1008.84 1009.40 1010.08 1010.84 1011.63 1012.42 1013.20 1013.95 1014.67 1015.35 1015.99 1016.62 1017.22 1017.81 1018.38 1018.93 1019.46 1019.95 1020.41 1020.82 1021.19 1021.50 1021.78 1022.03 1022.25 1022.46 1022.68 1022.90 1023.14 1023.41 1023.69 1024.00 1024.30 1024.60 1024.88 1025.14 1025.35 1025.51 1025.63 1025.71 1025.75 1025.77 1025.77
1007.95 1008.61 1009.40 1010.27 1011.17 1012.06 1012.89 1013.66 1014.36 1015.00 1015.58 1016.13 1016.66 1017.19 1017.72 1018.25 1018.79 1019.32 1019.83 1020.30 1020.73 1021.12 1021.44 1021.72 1021.97 1022.18 1022.38 1022.59 1022.81 1023.06 1023.33 1023.63 1023.95 1024.27 1024.58 1024.86 1025.11 1025.32 1025.47 1025.58 1025.64 1025.67 1025.68 1025.69
1007.45 1008.33 1009.32 1010.35 1011.36 1012.32 1013.18 1013.94 1014.59 1015.16 1015.66 1016.13 1016.59 1017.06 1017.56 1018.07 1018.61 1019.16 1019.70 1020.21 1020.67 1021.08 1021.43 1021.72 1021.96 1022.18 1022.37 1022.56 1022.77 1023.01 1023.27 1023.56 1023.87 1024.19 1024.49 1024.77 1025.01 1025.20 1025.34 1025.44 1025.50 1025.53 1025.55 1025.57
1006.99 1008.03 1009.16 1010.30 1011.40 1012.40 1013.27 1014.01 1014.63 1015.16 1015.61 1016.03 1016.45 1016.89 1017.37 1017.90 1018.46 1019.04 1019.61 1020.16 1020.66 1021.10 1021.47 1021.77 1022.02 1022.22 1022.39 1022.56 1022.75 1022.96 1023.19 1023.45 1023.73 1024.03 1024.31 1024.57 1024.79 1024.97 1025.11 1025.20 1025.27 1025.31 1025.34 1025.37
1006.59 1007.74 1008.95 1010.16 1011.30 1012.31 1013.19 1013.92 1014.52 1015.02 1015.46 1015.86 1016.27 1016.72 1017.21 1017.76 1018.35 1018.96 1019.57 1020.15 1020.68 1021.15 1021.53 1021.84 1022.08 1022.27 1022.42 1022.56 1022.70 1022.86 1023.05 1023.27 1023.51 1023.76 1024.01 1024.25 1024.46 1024.63 1024.76 1024.87 1024.94 1025.00 1025.06 1025.12
1006.30 1007.49 1008.74 1009.96 1011.10 1012.12 1012.99 1013.72 1014.32 1014.81 1015.25 1015.66 1016.09 1016.56 1017.08 1017.66 1018.28 1018.92 1019.56 1020.17 1020.72 1021.20 1021.59 1021.89 1022.11 1022.28 1022.40 1022.49 1022.59 1022.71 1022.85 1023.01 1023.21 1023.42 1023.63 1023.84 1024.03 1024.20 1024.34 1024.46 1024.56 1024.64 1024.72 1024.81
1006.15 1007.33 1008.55 1009.75 1010.87 1011.86 1012.72 1013.44 1014.05 1014.56 1015.02 1015.47 1015.92 1016.43 1016.98 1017.58 1018.23 1018.89 1019.55 1020.17 1020.72 1021.20 1021.58 1021.87 1022.08 1022.21 1022.30 1022.36 1022.42 1022.49 1022.58 1022.70 1022.84 1023.01 1023.20 1023.38 1023.57 1023.73 1023.89 1024.02 1024.14 1024.25 1024.36 1024.48
1006.14 1007.26 1008.42 1009.56 1010.63 1011.59 1012.43 1013.15 1013.77 1014.31 1014.80 1015.28 1015.78 1016.31 1016.89 1017.51 1018.17 1018.84 1019.49 1020.10 1020.64 1021.10 1021.47 1021.75 1021.94 1022.06 1022.13 1022.16 1022.19 1022.22 1022.28 1022.36 1022.47 1022.61 1022.76 1022.94 1023.11 1023.28 1023.44 1023.59 1023.74 1023.88 1024.01 1024.14
1006.24 1007.27 1008.34 1009.40 1010.41 1011.33 1012.15 1012.87 1013.50 1014.07 1014.60 1015.11 1015.64 1016.20 1016.79 1017.41 1018.06 1018.71 1019.34 1019.93 1020.45 1020.89 1021.25 1021.51 1021.70 1021.81 1021.87 1021.90 1021.92 1021.94 1021.98 1022.04 1022.12 1022.24 1022.38 1022.53 1022.70 1022.87 1023.04 1023.20 1023.36 1023.51 1023.66 1023.81
1006.43 1007.35 1008.32 1009.29 1010.23 1011.10 1011.90 1012.62 1013.26 1013.86 1014.41 1014.96 1015.50 1016.07 1016.65 1017.26 1017.88 1018.49 1019.09 1019.64 1020.13 1020.55 1020.90 1021.16 1021.35 1021.48 1021.56 1021.60 1021.63 1021.66 1021.70 1021.75 1021.83 1021.93 1022.05 1022.19 1022.34 1022.50 1022.67 1022.83 1022.99 1023.15 1023.31 1023.45
1006.63 1007.44 1008.30 1009.19 1010.06 1010.89 1011.67 1012.39 1013.05 1013.66 1014.24 1014.80 1015.35 1015.91 1016.47 1017.04 1017.62 1018.18 1018.72 1019.23 1019.69 1020.09 1020.43 1020.70 1020.92 1021.08 1021.19 1021.27 1021.33 1021.38 1021.43 1021.49 1021.56 1021.65 1021.75 1021.87 1022.00 1022.14 1022.29 1022.44 1022.60 1022.75 1022.89 1023.03
1006.77 1007.48 1008.26 1009.07 1009.88 1010.68 1011.45 1012.17 1012.84 1013.47 1014.06 1014.63 1015.17 1015.71 1016.23 1016.76 1017.27 1017.77 1018.26 1018.72 1019.14 1019.53 1019.87 1020.16 1020.41 1020.61 1020.77 1020.90 1021.00 1021.08 1021.16 1021.22 1021.29 1021.36 1021.44 1021.52 1021.62 1021.73 1021.85 1021.97 1022.11 1022.24 1022.37 1022.50
Thickness
5664 5671 5673 5671 5673 5675 5666 5658 5647 5647 5641 5636 5628 5619 5609 5600 5591 5584 5578 5572 5567 5561 5556 5553 5550 5547 5545 5544 5544 5543 5543 5542 5542 5543 5544 5545 5545 5545 5545 5545 5545 5545 5544 5544
5661 5671 5673 5669 5673 5672 5668 5664 5655 5646 5638 5637 5626 5614 5603 5595 5587 5580 5574 5568 5561 5556 5551 5547 5543 5540 5538 5536 5535 5535 5534 5534 5534 5534 5534 5534 5534 5534 5534 5533 5533 5533 5532 5532
5645 5659 5662 5652 5661 5663 5661 5662 5656 5643 5636 5628 5617 5609 5600 5592 5584 5577 5570 5563 5556 5550 5545 5540 5537 5534 5531 5530 5529 5528 5527 5527 5527 5527 5526 5526 5526 5525 5524 5523 5522 5522 5521 5521
5638 5646 5637 5652 5667 5666 5659 5656 5656 5647 5635 5627 5617 5605 5596 5588 5580 5571 5564 5557 5549 5543 5538 5534 5531 5528 5526 5525 5524 5523 5522 5521 5521 5520 5519 5518 5517 5516 5515 5514 5514 5513 5512 5511
5632 5632 5639 5655 5662 5660 5651 5645 5648 5639 5628 5617 5606 5595 5584 5580 5573 5566 5558 5551 5543 5538 5533 5529 5525 5523 5521 5520 5519 5518 5516 5516 5515 5514 5512 5511 5509 5508 5507 5507 5506 5505 5504 5503
5632 5630 5630 5649 5664 5667 5653 5636 5642 5635 5623 5612 5603 5592 5582 5574 5567 5558 5550 5544 5538 5532 5528 5523 5520 5518 5516 5514 5513 5512 5511 5510 5509 5508 5507 5505 5503 5502 5501 5500 5499 5498 5497 5496
5631 5630 5638 5657 5666 5663 5639 5638 5640 5632 5622 5611 5603 5596 5585 5571 5561 5552 5545 5538 5533 5528 5523 5519 5516 5514 5511 5509 5507 5507 5507 5505 5504 5503 5501 5500 5498 5497 5496 5495 5493 5491 5490 5489
5629 5626 5634 5660 5660 5651 5646 5647 5639 5627 5618 5608 5598 5588 5577 5566 5556 5547 5540 5533 5529 5523 5519 5515 5513 5510 5507 5504 5504 5504 5502 5501 5499 5498 5498 5496 5494 5492 5491 5489 5487 5485 5483 5482
5632 5634 5648 5655 5655 5654 5651 5640 5631 5622 5612 5602 5591 5580 5570 5560 5550 5543 5536 5530 5525 5520 5515 5512 5509 5507 5503 5502 5501 5499 5497 5496 5494 5494 5492 5491 5489 5488 5486 5484 5482 5480 5478 5476
5634 5643 5648 5649 5650 5649 5645 5637 5629 5619 5608 5598 5587 5575 5565 5555 5546 5539 5532 5526 5521 5517 5512 5508 5506 5504 5502 5500 5498 5496 5494 5492 5491 5489 5487 5485 5484 5484 5482 5480 5479 5477 5475 5473
5632 5639 5642 5643 5643 5641 5636 5630 5621 5612 5603 5593 5583 5571 5562 5552 5543 5536 5530 5524 5519 5515 5510 5507 5505 5503 5501 5499 5497 5494 5492 5490 5488 5486 5483 5481 5479 5478 5478 5477 5478 5476 5474 5472
5633 5639 5636 5635 5637 5637 5630 5622 5615 5606 5595 5586 5579 5569 5559 5550 5542 5535 5529 5523 5518 5513 5510 5507 5505 5503 5501 5499 5496 5493 5491 5489 5487 5485 5482 5480 5477 5475 5476 5476 5476 5476 5475 5473
5644 5644 5641 5636 5634 5632 5625 5617 5610 5602 5593 5583 5574 5566 5558 5548 5541 5535 5529 5523 5518 5514 5511 5507 5505 5503 5501 5499 5497 5494 5491 5489 5487 5486 5483 5481 5478 5477 5474 5474 5475 5475 5474 5473
5649 5644 5636 5634 5630 5627 5621 5613 5606 5597 5589 5581 5572 5564 5556 5549 5542 5536 5530 5525 5521 5517 5512 5509 5506 5504 5502 5501 5498 5496 5494 5492 5490 5488 5487 5484 5482 5479 5477 5475 5473 5473 5474 5474
5647 5645 5638 5634 5628 5622 5617 5609 5601 5592 5585 5577 5571 5564 5557 5550 5543 5537 5532 5528 5523 5519 5515 5512 5509 5506 5505 5503 5500 5498 5496 5495 5493 5491 5490 5488 5486 5483 5480 5478 5476 5475 5475 5475
5644 5642 5637 5632 5625 5619 5613 5607 5599 5592 5585 5578 5571 5565 5559 5553 5546 5541 5536 5531 5526 5521 5518 5515 5512 5510 5508 5506 5504 5501 5500 5500 5497 5495 5493 5491 5489 5487 5484 5482 5480 5479 5478 5478
5640 5637 5633 5628 5624 5619 5614 5608 5602 5595 5588 5581 5575 5569 5562 5555 5549 5543 5539 5535 5530 5526 5522 5519 5516 5515 5513 5510 5508 5505 5504 5503 5503 5500 5498 5496 5494 5492 5490 5488 5486 5484 5484 5484
5649 5646 5641 5636 5629 5621 5615 5609 5604 5597 5591 5585 5579 5572 5565 5559 5553 5547 5543 5539 5534 5530 5527 5525 5522 5520 5518 5516 5513 5511 5509 5507 5505 5504 5503 5501 5499 5498 5496 5494 5493 5491 5490 5489
5648 5645 5642 5637 5631 5625 5618 5612 5606 5600 5594 5589 5582 5576 5570 5564 5558 5553 5548 5543 5539 5534 5532 5531 5528 5525 5523 5521 5519 5516 5515 5513 5511 5509 5508 5507 5505 5504 5502 5500 5499 5497 5495 5494
5650 5648 5644 5639 5634 5627 5621 5615 5609 5603 5598 5592 5586 5579 5573 5568 5563 5558 5552 5548 5545 5542 5539 5537 5534 5531 5529 5527 5525 5522 5521 5519 5517 5515 5513 5511 5510 5509 5508 5506 5505 5503 5501 5499
5654 5651 5647 5642 5636 5630 5625 5619 5612 5606 5601 5596 5590 5584 5578 5573 5569 5563 5557 5552 5551 5549 5546 5543 5539 5537 5535 5533 5531 5528 5527 5525 5523 5521 5520 5518 5516 5515 5513 5512 5511 5509 5507 5505
5656 5653 5649 5644 5638 5632 5627 5622 5616 5611 5605 5600 5595 5589 5583 5578 5573 5569 5565 5561 5559 5556 5552 5549 5546 5544 5541 5539 5537 5535 5533 5532 5530 5528 5526 5524 5522 5521 5519 5518 5516 5515 5513 5511
5657 5654 5651 5646 5641 5635 5629 5625 5620 5615 5609 5605 5600 5595 5590 5585 5581 5575 5570 5568 5566 5563 5559 5556 5553 5551 5548 5545 5543 5541 5540 5539 5537 5535 5534 5532 5530 5528 5526 5524 5522 5521 5519 5517
5656 5654 5651 5647 5642 5636 5630 5627 5623 5619 5614 5610 5606 5601 5596 5590 5585 5583 5580 5577 5573 5569 5566 5563 5560 5557 5554 5551 5549 5547 5546 5545 5544 5543 5541 5539 5537 5535 5533 5531 5529 5527 5525 5523
5656 5653 5650 5646 5642 5638 5634 5630 5625 5621 5617 5613 5609 5606 5603 5598 5594 5590 5586 5583 5580 5575 5572 5569 5566 5563 5560 5557 5555 5554 5553 5552 5550 5549 5548 5546 5544 5542 5539 5537 5535 5533 5531 5529
5654 5653 5651 5649 5646 5642 5637 5633 5629 5625 5621 5617 5613 5611 5608 5604 5601 5596 5593 5589 5586 5582 5578 5575 5572 5569 5566 5564 5562 5561 5560 5558 5557 5556 5554 5552 5551 5548 5546 5544 5543 5540 5538 5536
5649 5649 5647 5645 5644 5643 5640 5637 5633 5629 5627 5623 5619 5616 5613 5610 5606 5602 5599 5595 5592 5588 5585 5582 5579 5576 5573 5571 5569 5568 5566 5565 5564 5562 5561 5559 5557 5555 5553 5551 5549 5547 5545 5542